Weather History for Athens Eleftherios, Greece

Change the Weather History Date:

Saturday, August 31, 2013

  Actual Average (LGEL) Record (LGEL)
Temperature  
Mean Temperature 75 °F -  
Max Temperature 82 °F 87 °F 100 °F (2003)
Min Temperature 68 °F 70 °F 66 °F (1999)
Cooling Degree Days 10    
Growing Degree Days 25 (Base 50)    
Moisture  
Dew Point 58 °F    
Average Humidity 56    
Maximum Humidity 83    
Minimum Humidity 35    
Precipitation  
Precipitation 0.00 in - - ()
Sea Level Pressure  
Sea Level Pressure 29.95 in    
Wind  
Wind Speed 7 mph ()    
Max Wind Speed 23 mph    
Max Gust Speed 29 mph    
Visibility 6.2 miles    
Events      
Averages and records for this station are not official NWS values.
T = Trace of Precipitation, MM = Missing Value Source: Averaged Metar Reports

Daily Weather History Graph

Daily Weather History Graph

Search for Another Location

Airport:

Trip Planner

Search our weather history database for the weather conditions in past years. The results will help you decide how hot, cold, wet, or windy it might be!

Date:

Astronomy

Aug. 31, 2013 Rise Set
Actual Time 6:53 AM EEST 7:55 PM EEST
Civil Twilight 6:26 AM EEST 8:22 PM EEST
Nautical Twilight 5:54 AM EEST 8:54 PM EEST
Astronomical Twilight 5:20 AM EEST 9:27 PM EEST
Moon 2:08 AM EEST (8/31) 4:37 PM EEST (8/31)
Length of Visible Light 13h 55m
Length of Day
13h 01m
Waning Crescent, 23% of the Moon is Illuminated
Aug 31
Waning Crescent
Sep 5
New
Sep 12
First Quarter
Sep 19
Full
Sep 27
Last Quarter

Hourly Weather History & Observations

Time (EEST) Temp. Heat Index Dew Point Humidity Pressure Visibility Wind Dir Wind Speed Gust Speed Precip Events Conditions
12:20 AM 71.6 °F - 64.4 °F 78% 29.95 in 6.2 mi Calm Calm - N/A   Partly Cloudy
12:50 AM 69.8 °F - 64.4 °F 83% 29.95 in 6.2 mi Variable 2.3 mph - N/A   Scattered Clouds
1:20 AM 68.0 °F - 62.6 °F 83% 29.92 in 6.2 mi NE 5.8 mph - N/A   Scattered Clouds
1:50 AM 69.8 °F - 64.4 °F 83% 29.92 in 6.2 mi Variable 3.5 mph - N/A   Scattered Clouds
2:20 AM 69.8 °F - 64.4 °F 83% 29.92 in 6.2 mi Calm Calm - N/A   Scattered Clouds
2:50 AM 68.0 °F - 62.6 °F 83% 29.92 in 6.2 mi Variable 2.3 mph - N/A   Partly Cloudy
3:20 AM 68.0 °F - 62.6 °F 83% 29.92 in 6.2 mi Calm Calm - N/A   Scattered Clouds
3:50 AM 68.0 °F - 62.6 °F 83% 29.92 in 6.2 mi Calm Calm - N/A   Scattered Clouds
4:20 AM 68.0 °F - 62.6 °F 83% 29.92 in 6.2 mi WSW 1.2 mph - N/A   Scattered Clouds
4:50 AM 69.8 °F - 62.6 °F 78% 29.92 in 6.2 mi ENE 3.5 mph - N/A   Scattered Clouds
5:20 AM 68.0 °F - 60.8 °F 78% 29.92 in 6.2 mi North 2.3 mph - N/A   Scattered Clouds
5:50 AM 68.0 °F - 59.0 °F 73% 29.92 in 6.2 mi ENE 3.5 mph - N/A   Scattered Clouds
6:20 AM 69.8 °F - 59.0 °F 68% 29.92 in 6.2 mi Variable 1.2 mph - N/A   Scattered Clouds
6:50 AM 69.8 °F - 59.0 °F 68% 29.92 in 6.2 mi Variable 2.3 mph - N/A   Scattered Clouds
7:20 AM 71.6 °F - 59.0 °F 64% 29.92 in 6.2 mi Variable 3.5 mph - N/A   Partly Cloudy
7:50 AM 73.4 °F - 59.0 °F 61% 29.95 in 6.2 mi Calm Calm - N/A   Partly Cloudy
8:20 AM 77.0 °F - 60.8 °F 57% 29.95 in 6.2 mi Variable 3.5 mph - N/A   Scattered Clouds
8:50 AM 77.0 °F - 60.8 °F 57% 29.95 in 6.2 mi North 8.1 mph - N/A   Scattered Clouds
9:20 AM 78.8 °F - 60.8 °F 54% 29.95 in 6.2 mi North 9.2 mph - N/A   Partly Cloudy
9:50 AM 80.6 °F 81.1 °F 59.0 °F 48% 29.95 in 6.2 mi NNE 12.7 mph - N/A   Partly Cloudy
10:20 AM 80.6 °F 80.8 °F 57.2 °F 45% 29.95 in 6.2 mi North 12.7 mph - N/A   Partly Cloudy
10:50 AM 82.4 °F 81.7 °F 55.4 °F 39% 29.98 in 6.2 mi NNE 15.0 mph - N/A   Partly Cloudy
11:20 AM 82.4 °F 81.4 °F 53.6 °F 37% 29.98 in 6.2 mi NE 18.4 mph - N/A   Partly Cloudy
11:50 AM 82.4 °F 81.4 °F 53.6 °F 37% 29.95 in 6.2 mi NNE 18.4 mph - N/A   Scattered Clouds
12:20 PM 82.4 °F 81.4 °F 53.6 °F 37% 29.98 in 6.2 mi NNE 15.0 mph - N/A   Scattered Clouds
12:50 PM 80.6 °F 80.3 °F 53.6 °F 39% 29.98 in 6.2 mi NE 17.3 mph - N/A   Scattered Clouds
1:20 PM 80.6 °F 80.3 °F 53.6 °F 39% 29.95 in 6.2 mi NE 18.4 mph - N/A   Scattered Clouds
1:50 PM 82.4 °F 81.4 °F 53.6 °F 37% 29.95 in 6.2 mi NNE 18.4 mph - N/A   Partly Cloudy
2:20 PM 82.4 °F 81.4 °F 53.6 °F 37% 29.95 in 6.2 mi NNE 20.7 mph - N/A   Partly Cloudy
2:50 PM 82.4 °F - 51.8 °F 35% 29.95 in 6.2 mi NE 20.7 mph - N/A   Partly Cloudy
3:20 PM 82.4 °F 81.7 °F 55.4 °F 39% 29.95 in 6.2 mi ENE 17.3 mph - N/A   Partly Cloudy
3:50 PM 82.4 °F 82.0 °F 57.2 °F 42% 29.95 in 6.2 mi ENE 17.3 mph 28.8 mph N/A   Partly Cloudy
4:20 PM 82.4 °F 81.7 °F 55.4 °F 39% 29.95 in 6.2 mi NE 21.9 mph - N/A   Partly Cloudy
4:50 PM 82.4 °F 81.7 °F 55.4 °F 39% 29.95 in 6.2 mi ENE 17.3 mph - N/A   Partly Cloudy
5:20 PM 80.6 °F 80.8 °F 57.2 °F 45% 29.95 in 6.2 mi ENE 17.3 mph - N/A   Partly Cloudy
5:50 PM 78.8 °F - 57.2 °F 47% 29.95 in 6.2 mi NE 23.0 mph - N/A   Partly Cloudy
6:20 PM 78.8 °F - 59.0 °F 51% 29.95 in 6.2 mi NNE 21.9 mph - N/A   Partly Cloudy
6:50 PM 77.0 °F - 59.0 °F 54% 29.95 in 6.2 mi NNE 18.4 mph - N/A   Partly Cloudy
7:20 PM 77.0 °F - 57.2 °F 50% 29.95 in 6.2 mi NNE 16.1 mph - N/A   Partly Cloudy
7:50 PM 77.0 °F - 57.2 °F 50% 29.98 in 6.2 mi NNE 11.5 mph - N/A   Scattered Clouds
8:20 PM 75.2 °F - 57.2 °F 53% 29.98 in 6.2 mi NE 12.7 mph - N/A   Partly Cloudy
8:50 PM 75.2 °F - 57.2 °F 53% 29.98 in 6.2 mi NNE 8.1 mph - N/A   Scattered Clouds
9:20 PM 75.2 °F - 57.2 °F 53% 29.98 in 6.2 mi NNE 2.3 mph - N/A   Scattered Clouds
9:50 PM 75.2 °F - 55.4 °F 50% 30.01 in 6.2 mi North 3.5 mph - N/A   Scattered Clouds
10:20 PM 75.2 °F - 53.6 °F 47% 30.01 in 6.2 mi North 5.8 mph - N/A   Partly Cloudy
10:50 PM 73.4 °F - 55.4 °F 53% 30.01 in 6.2 mi NE 10.4 mph - N/A   Partly Cloudy
11:20 PM 73.4 °F - 51.8 °F 47% 30.01 in 6.2 mi North 6.9 mph - N/A   Partly Cloudy
11:50 PM 71.6 °F - 51.8 °F 50% 30.01 in 6.2 mi North 10.4 mph - N/A   Partly Cloudy